This is the latest recevied weather packets stored in our database for station/object DO7CRZ-10. If no packets are shown the sender has not sent any weather packets the latest 10 day(s).
| Time | Temp. | Humidity | Pressure | Rain* | Wind** | Luminosity | Snow |
|---|---|---|---|---|---|---|---|
| 1776962000 | 16.67° C | 46% | 1018 hPa | - | - | - | - |
| 1776960254 | 17.78° C | 44% | 1018 hPa | - | - | - | - |
| 1776958508 | 17.78° C | 42% | 1018 hPa | - | - | - | - |
| 1776956763 | 18.33° C | 44% | 1018 hPa | - | - | - | - |
| 1776955017 | 18.33° C | 41% | 1018 hPa | - | - | - | - |
| 1776953271 | 17.78° C | 41% | 1019 hPa | - | - | - | - |
| 1776951525 | 18.33° C | 41% | 1019 hPa | - | - | - | - |
| 1776949779 | 17.78° C | 41% | 1019 hPa | - | - | - | - |
| 1776948033 | 16.67° C | 41% | 1020 hPa | - | - | - | - |
| 1776946288 | 16.11° C | 42% | 1020 hPa | - | - | - | - |
| 1776944542 | 15.56° C | 42% | 1020 hPa | - | - | - | - |
| 1776942796 | 16.11° C | 43% | 1020 hPa | - | - | - | - |
| 1776941050 | 16.11° C | 44% | 1020 hPa | - | - | - | - |
| 1776939304 | 15.56° C | 44% | 1020 hPa | - | - | - | - |
| 1776937558 | 14.44° C | 45% | 1020 hPa | - | - | - | - |
| 1776935812 | 13.89° C | 45% | 1021 hPa | - | - | - | - |
| 1776934067 | 13.33° C | 45% | 1021 hPa | - | - | - | - |
| 1776932321 | 12.22° C | 46% | 1021 hPa | - | - | - | - |
| 1776930575 | 11.67° C | 45% | 1021 hPa | - | - | - | - |
| 1776928829 | 11.67° C | 43% | 1021 hPa | - | - | - | - |
| 1776927083 | 10.56° C | 50% | 1021 hPa | - | - | - | - |
| 1776925338 | 10.56° C | 50% | 1021 hPa | - | - | - | - |
| 1776923592 | 9.44° C | 50% | 1021 hPa | - | - | - | - |
| 1776921846 | 8.89° C | 53% | 1021 hPa | - | - | - | - |
| 1776920100 | 8.33° C | 55% | 1021 hPa | - | - | - | - |
* Rain since midnight (hover to see other rain measurements)
** Current wind speed in m/s (hover to see current wind gust speed)